Flag for Germany Weather past 2 weeks in Warendorf, North Rhine-Westphalia, Germany

Now
68 °F

Broken clouds.


Feels Like: 68 °F
Forecast: 56 / 74 °F
Wind: 5 mph from Northwest

Location: Muenster / Osnabrueck

Current Time: Jul 30, 2014 at 10:25:54 PM

Latest Report: Jul 30, 2014 at 9:50 PM


Visibility: N/A

Pressure: 29.92 "Hg

Humidity: 69%

Dew point: 57 °F

Location of WarendorfLocation

Historic Weather in Warendorf — Graph

°F

Warendorf temperature yesterday

Maximum temperature yesterday: 81 °F (at 3:20 PM)
Minimum temperature yesterday: 63 °F (at 5:20 AM)
Average temperature yesterday: 72 °F

Past Weeks' High & Low Weather Summary

 TemperatureHumidityPressure
High93 °F (Jul 19, 2:20 PM)100% (Jul 16, 2:20 AM)30.18 "Hg (Jul 16, 2:20 AM)
Low55 °F (Jul 17, 4:50 AM)19% (Jul 19, 3:20 PM)29.74 "Hg (Jul 20, 4:50 AM)
Average71 °F73%29.96 "Hg
* Reported Jul 15 9:20 PM — Jul 30 9:20 PM, Warendorf, Weather by CustomWeather, © 2014

Note: Actual official high and low records may vary slightly from our data, if they occured in-between our weather recording intervals... More about our weather records

Advertising

Warendorf weather history for previous 24 hours

 ConditionsComfort  
Time TempWeatherWind HumidityBarometerVisibility
9:20 PM
Jul 30
70 °FBroken clouds.6 mph64%29.92 "HgN/A
8:50 PM70 °FBroken clouds.3 mph64%29.92 "HgN/A
8:20 PM70 °FBroken clouds.3 mph64%29.89 "HgN/A
7:50 PM72 °FBroken clouds.6 mph61%29.89 "HgN/A
7:20 PM73 °FBroken clouds.6 mph53%29.89 "HgN/A
6:50 PM72 °FBroken clouds.7 mph53%29.89 "HgN/A
6:20 PM72 °FPartly sunny.7 mph53%29.89 "HgN/A
5:50 PM72 °FPartly sunny.9 mph57%29.89 "HgN/A
5:20 PM73 °FPartly sunny.9 mph57%29.89 "HgN/A
4:50 PM73 °FPartly sunny.13 mph57%29.89 "HgN/A
4:20 PM73 °FPartly sunny.6 mph50%29.89 "HgN/A
3:50 PM73 °FPartly sunny.12 mph50%29.89 "HgN/A
3:20 PM75 °FScattered clouds.7 mph50%29.89 "HgN/A
2:50 PM73 °FScattered clouds.7 mph53%29.89 "HgN/A
2:20 PM73 °FScattered clouds.9 mph50%29.89 "HgN/A
1:50 PM72 °FScattered clouds.9 mph53%29.89 "HgN/A
1:20 PM73 °FScattered clouds.7 mph57%29.89 "HgN/A
12:50 PM72 °FScattered clouds.8 mph57%29.89 "HgN/A
12:20 PM72 °FBroken clouds.8 mph61%29.86 "HgN/A
11:50 AM72 °FPartly sunny.10 mph61%29.86 "HgN/A
11:20 AM70 °FScattered clouds.10 mph64%29.86 "HgN/A
10:50 AM68 °FScattered clouds.9 mph69%29.86 "HgN/A
10:20 AM70 °FBroken clouds.9 mph73%29.86 "HgN/A
9:50 AM68 °FBroken clouds.10 mph78%29.86 "HgN/A
9:20 AM66 °FBroken clouds.10 mph78%29.86 "HgN/A
8:50 AM66 °FPartly sunny.9 mph83%29.86 "HgN/A
8:20 AM64 °FBroken clouds.8 mph83%29.86 "HgN/A
7:50 AM63 °FBroken clouds.8 mph94%29.83 "HgN/A
7:20 AM64 °FPartly sunny.9 mph88%29.83 "HgN/A
6:50 AM64 °FPartly sunny.8 mph88%29.83 "HgN/A
6:20 AM64 °FPassing clouds.8 mph88%29.83 "HgN/A
5:50 AM64 °FPartly cloudy.9 mph88%29.83 "HgN/A
5:20 AM64 °FPartly cloudy.7 mph88%29.80 "HgN/A
4:50 AM64 °FPartly cloudy.8 mph88%29.80 "HgN/A
4:20 AM64 °FPartly cloudy.9 mph88%29.80 "HgN/A
3:50 AM64 °FPassing clouds.7 mph94%29.80 "HgN/A
3:20 AM64 °FPartly cloudy.9 mph94%29.80 "HgN/A
2:50 AM66 °FPassing clouds.7 mph88%29.80 "HgN/A
2:20 AM66 °FPassing clouds.8 mph88%29.80 "HgN/A
1:50 AM66 °FPassing clouds.6 mph88%29.80 "HgN/A
1:20 AM68 °FPassing clouds.5 mph83%29.83 "HgN/A
12:50 AM68 °FPartly cloudy.5 mph83%29.83 "HgN/A
12:20 AM68 °FPartly cloudy.6 mph83%29.83 "HgN/A
11:50 PM
Jul 29
70 °FPassing clouds.5 mph78%29.83 "HgN/A
11:20 PM72 °FPartly cloudy.6 mph73%29.83 "HgN/A
10:50 PM72 °FPartly cloudy.6 mph73%29.80 "HgN/A
10:20 PM72 °FLight rain. Broken clouds.6 mph78%29.83 "HgN/A
Weather by CustomWeather, © 2014

See weather overviewHow to use our weather pages